2021-059BB (48928 NORAD) Tracking and Keplerian Element Data

This shows tracking and keplerian element data for the satellite.

Feedback or suggestion? Click here.




ElementValue
Catalog48928
Name2021-059BB
Epoch Orbit1286
Epoch Day261.84412652
Epoch Year2021
RAAN29.5814
Inclination97.5248
Eccentricity0.0014659
Argument of Perigee320.7978
Mean Anonmoly39.2191
Mean Motion15.13753375
Decay Rate1.095E-05
L11 48928U 21059BB 21261.84412652 .00001095 00000-0 64265-4 0 9994
L22 48928 97.5248 29.5814 0014659 320.7978 39.2191 15.13753375 12860

Live tracking and technical data element details for 2021-059BB (NORAD 48928). 2021-059BB can be tracked NOW for your location showing map with azimuth and elevation plus other details from your city location.

Track the satellite on the map from your city or location and see movement details for azimuth, elevation, latitude, longitude, range, height, and movement on the map or in text.







IsCatalogInMostPopularTable: catalog: 48928, numindb: 16
Update: records affected: 1



GetName: 48928 2021-059BB

Hit Count: updated at: Fri, 24 Sep 2021 17:25:47 GMT